Regional Weather Roundup
Issued by NWS

Home | Current Version | Previous Version | Graphics & Text | Print | Product List | Glossary On
Versions: 1 2 3 4 5 6 7 8 9 10 11 12 13 14 15 16 17 18 19 20 21 22 23 24 25 26 27 28 29 30 31 32 33 34 35 36 37 38 39 40 41 42 43 44 45 46 47 48 49 50
000
ASUS43 KDMX 011707
RWRIA

WEATHER ROUNDUP FOR IOWA
NATIONAL WEATHER SERVICE DES MOINES IA
1200 PM CDT FRI AUG 01 2014

NOTE: "FAIR" INDICATES FEW OR NO CLOUDS BELOW 12,000 FEET WITH NO
SIGNIFICANT WEATHER AND/OR OBSTRUCTIONS TO VISIBILITY.

* - THESE STATIONS ARE NOT NWS STATIONS...THUS NOT UNDER NWS
QUALITY CONTROL.  THEY ALSO DO NOT REPORT WEATHER SUCH
AS PRECIPITATION OR FOG.

IAZ001>003-012>014-020>022-031>034-043>046-011800-
   NORTHWEST IOWA

CITY           SKY/WX    TMP DP  RH WIND       PRES   REMARKS
CARROLL *      SUNNY     77  61  57 CALM      30.11S
CHEROKEE *     SUNNY     77  64  65 CALM      30.12R
DENISON *      MOSUNNY   75  64  69 N6        30.10S
LE MARS *      SUNNY     77  63  61 CALM      30.12S
ORANGE CITY *  SUNNY     77  63  61 NW5       30.12S
SHELDON *      SUNNY     75  63  64 VRB5      30.11S
SIOUX CITY     SUNNY     79  61  53 VRB3      30.11S HX  80
SPENCER        MOSUNNY   81  59  47 MISG      30.11S HX  81
STORM LAKE *   SUNNY     75  63  64 VRB5      30.13S
$$

IAZ055>058-069>071-079>083-090>094-011800-
   SOUTHWEST IOWA

CITY           SKY/WX    TMP DP  RH WIND       PRES   REMARKS
ATLANTIC *     SUNNY     77  64  65 VRB5      30.10S
AUDUBON *      SUNNY     79  64  61 CALM      30.12S HX  81
CLARINDA *     MOSUNNY   75  66  73 VRB5      30.11S
COUNCIL BLFS * PTSUNNY   73  66  78 NE7       30.09S
CRESTON *      SUNNY     75  61  60 CALM      30.11S
HARLAN  *      SUNNY     75  63  64 CALM      30.14S
LAMONI         PTSUNNY   77  61  57 CALM      30.10S
RED OAK *      CLOUDY    77  66  69 E8        30.10R
SHENANDOAH *   CLOUDY    75  64  69 E8        30.10R
$$

IAZ047>049-059>061-072>074-084-011800-
   CENTRAL IOWA

CITY           SKY/WX    TMP DP  RH WIND       PRES   REMARKS
AMES           SUNNY     78  60  53 VRB3      30.10S
ANKENY *       SUNNY     79  61  53 CALM      30.10S HX  80
CHARITON *     SUNNY     77  61  57 VRB5      30.10S
DES MOINES     MOSUNNY   80  61  52 CALM      30.09S HX  81
GRINNELL*      SUNNY     77  61  57 CALM      30.11S
KNOXVILLE *    SUNNY     77  61  57 N6        30.09S
MARSHALLTOWN   SUNNY     78  62  57 CALM      30.10S HX  80
PELLA *        SUNNY     79  63  57 CALM      30.11S HX  80
PERRY *          N/A     77  61  57 NW3       30.11S
$$

IAZ004>006-015-016-023>025-035-036-011800-
   NORTH CENTRAL IOWA

CITY           SKY/WX    TMP DP  RH WIND       PRES   REMARKS
ALGONA *       SUNNY     77  63  61 NW3       30.11S
CLARION *      SUNNY     77  59  53 CALM      30.11S
ESTHERVILLE    SUNNY     77  62  59 NW6       30.11S
FORT DODGE *   SUNNY     77  61  57 CALM      30.12S
MASON CITY     SUNNY     76  61  59 CALM      30.12R
FOREST CITY *  PTSUNNY   77  63  61 CALM      30.11S
IOWA FALLS *     N/A     77  59  53 W3        30.12S
$$

IAZ007>011-017>019-026>030-037>042-050>054-066-011800-
   NORTHEAST IOWA

CITY           SKY/WX    TMP DP  RH WIND       PRES   REMARKS
CEDAR RAPIDS   MOSUNNY   77  61  57 NW5       30.09S
CHARLES CITY * SUNNY     77  61  57 W5        30.11S
CLINTON *      SUNNY     77  63  61 CALM      30.13S
DECORAH *      SUNNY     77  57  50 VRB5      30.09S
DUBUQUE        MOSUNNY   77  60  55 CALM      30.11R
MONTICELLO *   SUNNY     79  63  57 CALM      30.09S HX  80
OELWEIN *      MOSUNNY   79  61  53 NW6       30.11S HX  80
WATERLOO       MOSUNNY   81  59  47 NW6       30.08F HX  81
$$

IAZ064-065-067-068-078-011800-
   EAST CENTRAL IOWA

CITY           SKY/WX    TMP DP  RH WIND       PRES   REMARKS
DAVENPORT      MOSUNNY   77  62  59 NW5       30.10S
IOWA CITY      SUNNY     79  64  60 CALM      30.10S HX  81
MT. PLEASANT * SUNNY     79  61  53 CALM      30.10S HX  80
MUSCATINE *    SUNNY     79  63  57 S8        30.09S HX  80
QUAD CITIES    SUNNY     79  62  56 SW7       30.09S HX  80
$$

IAZ062-063-075>077-085>089-095>099-011800-
   SOUTHEAST IOWA

CITY           SKY/WX    TMP DP  RH WIND       PRES   REMARKS
BURLINGTON     MOSUNNY   78  64  61 CALM      30.10R HX  80
FAIRFIELD *    MOSUNNY   79  61  53 CALM      30.10S HX  80
FORT MADISON * PTSUNNY   79  64  61 CALM      30.10F HX  81
KEOKUK *       SUNNY     79  66  65 VRB6      30.09F HX  81
OSKALOOSA *      N/A     79  63  57 NE3       30.10S HX  80
CENTERVILLE *  SUNNY     79  63  57 CALM      30.11F HX  80
OTTUMWA        SUNNY     79  63  57 CALM      30.09S HX  80
WASHINGTON *   SUNNY     79  66  65 S6        30.10S HX  81
$$

ABBREVIATIONS USED IN REMARKS
   TC - TEMPERATURES IN CELSIUS
  WCI - WIND CHILL INDEX
   HX - HEAT INDEX
  VSB - VISIBILITY
$$




USA.gov is the U.S. government's official web portal to all federal, state and local government web resources and services.